Pierre, SD

2:28 AM CDT on April 28, 2017 (GMT -0500)
Pierre Regional

Weather History for KPIR - April, 2014

Change the Weather History Date:

Saturday, April 19, 2014

  Actual Average Record
Temperature  
Mean Temperature 55 °F 48 °F  
Max Temperature 69 °F 62 °F 88 °F (1961)
Min Temperature 40 °F 36 °F 17 °F (1966)
Degree Days  
Heating Degree Days 10 17  
Month to date heating degree days 448 388  
Since 1 July heating degree days 7516 6833  
Cooling Degree Days 0 0  
Month to date cooling degree days 0 0  
Year to date cooling degree days 0 0  
Growing Degree Days 6 (Base 50)    
Moisture  
Dew Point 29 °F    
Average Humidity 43    
Maximum Humidity 70    
Minimum Humidity 15    
Precipitation  
Precipitation 0.00 in 0.06 in 1.61 in (1971)
Month to date precipitation 0.07 1.02  
Year to date precipitation 1.63 3.26  
Snow  
Snow 0.00 in 0.20 in 2.50 in (1959)
Month to date snowfall T 3.1  
Since 1 July snowfall 34.6 30.9  
Snow Depth 0.00 in    
Sea Level Pressure  
Sea Level Pressure 29.92 in    
Wind  
Wind Speed 9 mph (West)    
Max Wind Speed 36 mph    
Max Gust Speed 47 mph    
Visibility 10 miles    
Events      
T = Trace of Precipitation, MM = Missing Value Source: NWS Daily Summary

Daily Weather History Graph

Daily Weather History Graph

Search for Another Location

Airport or City:

Trip Planner

Search our weather history database for the weather conditions in past years. The results will help you decide how hot, cold, wet, or windy it might be!

Date:

Astronomy

Apr. 19, 2014 Rise Set
Actual Time 6:50 AM CDT 8:30 PM CDT
Civil Twilight 6:19 AM CDT 9:01 PM CDT
Nautical Twilight 5:42 AM CDT 9:38 PM CDT
Astronomical Twilight 5:02 AM CDT 10:19 PM CDT
Moon 12:21 AM CDT (4/19) 10:05 AM CDT (4/19)
Length of Visible Light 14h 41m
Length of Day
13h 40m
Waning Gibbous, 78% of the Moon is Illuminated
Apr 19
Waning Gibbous
Apr 22
Last Quarter
Apr 29
New
May 6
First Quarter
May 14
Full

Hourly Weather History & Observations

Time (CDT) Temp. Windchill Dew Point Humidity Pressure Visibility Wind Dir Wind Speed Gust Speed Precip Events Conditions
12:53 AM 66.9 °F - 43.0 °F 42% 29.61 in 10.0 mi SSW 9.2 mph - N/A   Clear
1:42 AM 64.0 °F - 42.1 °F 45% 29.69 in 10.0 mi West 23.0 mph - N/A   Partly Cloudy
1:53 AM 62.1 °F - 41.0 °F 46% 29.67 in 10.0 mi WNW 21.9 mph 33.4 mph N/A   Clear
2:53 AM 55.0 °F - 39.9 °F 57% 29.73 in 10.0 mi NW 25.3 mph 32.2 mph N/A   Clear
4:53 AM 46.9 °F - 35.1 °F 63% 29.83 in 10.0 mi WNW 10.4 mph - N/A   Clear
5:53 AM 45.0 °F 40.1 °F 35.1 °F 68% 29.87 in 10.0 mi West 9.2 mph - N/A   Clear
7:53 AM 44.1 °F 40.1 °F 33.1 °F 65% 29.95 in 10.0 mi West 6.9 mph - N/A   Clear
8:53 AM 48.0 °F - 33.1 °F 56% 29.97 in 10.0 mi West 9.2 mph - N/A   Clear
9:53 AM 51.1 °F - 33.1 °F 50% 29.99 in 10.0 mi West 9.2 mph - N/A   Clear
10:53 AM 55.9 °F - 28.9 °F 36% 30.00 in 10.0 mi WNW 10.4 mph - N/A   Clear
11:53 AM 57.9 °F - 26.1 °F 30% 29.99 in 10.0 mi NW 12.7 mph - N/A   Clear
12:53 PM 60.1 °F - 24.1 °F 25% 29.99 in 10.0 mi WNW 9.2 mph - N/A   Clear
1:53 PM 64.0 °F - 23.0 °F 21% 29.99 in 10.0 mi Variable 6.9 mph - N/A   Clear
2:53 PM 66.9 °F - 21.9 °F 18% 29.98 in 10.0 mi WSW 8.1 mph 18.4 mph N/A   Clear
3:53 PM 66.9 °F - 21.0 °F 17% 29.99 in 10.0 mi SW 6.9 mph - N/A   Clear
4:53 PM 68.0 °F - 19.9 °F 16% 29.98 in 10.0 mi WSW 8.1 mph - N/A   Clear
5:53 PM 68.0 °F - 21.9 °F 17% 29.97 in 10.0 mi West 6.9 mph - N/A   Clear
6:53 PM 66.9 °F - 21.0 °F 17% 29.98 in 10.0 mi Variable 3.5 mph - N/A   Clear
7:53 PM 64.0 °F - 23.0 °F 21% 29.98 in 10.0 mi SSW 4.6 mph - N/A   Clear
8:53 PM 52.0 °F - 26.1 °F 37% 29.99 in 10.0 mi SSW 3.5 mph - N/A   Clear
9:53 PM 54.0 °F - 26.1 °F 34% 30.00 in 10.0 mi South 3.5 mph - N/A   Clear
10:53 PM 46.0 °F 43.9 °F 28.0 °F 50% 30.01 in 10.0 mi NNE 4.6 mph - N/A   Clear
11:53 PM 42.1 °F - 28.0 °F 58% 30.01 in 10.0 mi Calm Calm - N/A   Clear